Weather History for KASE - July, 2013

Change the Weather History Date:

Saturday, July 20, 2013

  Actual Average Record
Temperature  
Mean Temperature 67 °F 64 °F  
Max Temperature 85 °F 81 °F 90 °F (1998)
Min Temperature 49 °F 48 °F 40 °F (1992)
Degree Days  
Heating Degree Days 0 2  
Month to date heating degree days 10 49  
Since 1 June heating degree days 156 278  
Since 1 July heating degree days 10 49  
Cooling Degree Days 2 1  
Month to date cooling degree days 32 18  
Year to date cooling degree days 48 22  
Since 1 June cooling degree days 48 22  
Growing Degree Days 16 (Base 50)    
Moisture  
Dew Point 37 °F    
Average Humidity 47    
Maximum Humidity 80    
Minimum Humidity 13    
Precipitation  
Precipitation 0.00 in 0.06 in 0.30 in (1986)
Month to date precipitation 0.41 0.99  
Year to date precipitation 7.18 9.06  
Sea Level Pressure  
Sea Level Pressure 29.85 in    
Wind  
Wind Speed 6 mph (WSW)    
Max Wind Speed 16 mph    
Max Gust Speed 25 mph    
Visibility 10 miles    
Events      
T = Trace of Precipitation, MM = Missing Value Source: NWS Daily Summary

Daily Weather History Graph

Daily Weather History Graph

Search for Another Location

Airport or City:

Trip Planner

Search our weather history database for the weather conditions in past years. The results will help you decide how hot, cold, wet, or windy it might be!

Date:

Astronomy

Jul. 20, 2013 Rise Set
Actual Time 5:57 AM MDT 8:29 PM MDT
Civil Twilight 5:26 AM MDT 9:00 PM MDT
Nautical Twilight 4:48 AM MDT 9:38 PM MDT
Astronomical Twilight 4:05 AM MDT 10:21 PM MDT
Moon 6:36 PM MDT (7/20) 3:40 AM MDT (7/20)
Length of Visible Light 15h 33m
Length of Day
14h 32m
Waxing Gibbous, 94% of the Moon is Illuminated
Jul 20
Waxing Gibbous
Jul 22
Full
Jul 29
Last Quarter
Aug 6
New
Aug 14
First Quarter

Hourly Weather History & Observations

Time (MDT) Temp. Dew Point Humidity Pressure Visibility Wind Dir Wind Speed Gust Speed Precip Events Conditions
12:53 AM 63.0 °F 46.0 °F 54% 29.90 in 10.0 mi South 10.4 mph - N/A   Clear
1:53 AM 55.0 °F 45.0 °F 69% 29.93 in 10.0 mi SSW 6.9 mph - N/A   Clear
2:53 AM 55.0 °F 44.1 °F 67% 29.93 in 10.0 mi SSW 4.6 mph - N/A   Clear
3:53 AM 51.1 °F 43.0 °F 74% 29.96 in 10.0 mi SW 8.1 mph - N/A   Clear
4:53 AM 48.9 °F 43.0 °F 80% 29.94 in 10.0 mi SSW 6.9 mph - N/A   Clear
5:53 AM 51.1 °F 43.0 °F 74% 29.94 in 10.0 mi SSW 8.1 mph - N/A   Clear
6:53 AM 48.9 °F 43.0 °F 80% 29.95 in 10.0 mi SSW 3.5 mph - N/A   Clear
7:53 AM 57.9 °F 44.1 °F 60% 29.94 in 10.0 mi SE 3.5 mph - N/A   Clear
8:53 AM 63.0 °F 45.0 °F 52% 29.92 in 10.0 mi Calm Calm - N/A   Clear
9:53 AM 71.1 °F 45.0 °F 39% 29.88 in 10.0 mi Calm Calm - N/A   Clear
10:53 AM 75.9 °F 41.0 °F 29% 29.86 in 10.0 mi Calm Calm - N/A   Clear
11:53 AM 79.0 °F 39.9 °F 25% 29.83 in 10.0 mi NNW 5.8 mph - N/A   Clear
12:53 PM 81.0 °F 36.0 °F 20% 29.80 in 10.0 mi NNW 9.2 mph 19.6 mph N/A   Clear
1:53 PM 84.0 °F 30.0 °F 14% 29.80 in 10.0 mi NNW 12.7 mph 18.4 mph N/A   Scattered Clouds
2:53 PM 79.0 °F 28.9 °F 16% 29.81 in 10.0 mi NNW 5.8 mph - N/A   Mostly Cloudy
3:53 PM 82.9 °F 28.9 °F 14% 29.79 in 10.0 mi Variable 4.6 mph - N/A   Scattered Clouds
4:53 PM 82.9 °F 28.9 °F 14% 29.78 in 10.0 mi Calm Calm - N/A   Scattered Clouds
5:53 PM 82.9 °F 28.0 °F 14% 29.75 in 10.0 mi NNW 6.9 mph - N/A   Partly Cloudy
6:53 PM 80.1 °F 25.0 °F 13% 29.77 in 10.0 mi NW 8.1 mph - N/A   Clear
7:53 PM 75.9 °F 27.0 °F 16% 29.76 in 10.0 mi WNW 5.8 mph - N/A   Clear
8:53 PM 66.0 °F 37.0 °F 34% 29.78 in 10.0 mi SSW 6.9 mph - N/A   Clear
9:53 PM 63.0 °F 35.1 °F 35% 29.81 in 10.0 mi SSW 10.4 mph - N/A   Clear
10:53 PM 60.1 °F 34.0 °F 38% 29.81 in 10.0 mi SW 9.2 mph - N/A   Clear
11:53 PM 57.9 °F 33.1 °F 39% 29.79 in 10.0 mi SW 9.2 mph - N/A   Clear